パンスターズ彗星

P/2014 W4 ( PanSTARRS )

English version
Home page
Updated on May 22, 2017

---------------------------------------------------------------------

・ プロフィール

発見日 2014年11月18日
発見光度 20.7等
発見者 Pan-STARRS 1 telescope (Haleakala)

・ 写真集

・ 軌道要素

Epoch 2016 Jan. 13.0 TT = JDT 2457400.5
T 2015 Dec. 29.68489 TT                                 MPCW
q   4.2610347            (2000.0)            P               Q
n   0.05830291     Peri.   67.43547     -0.16924587     -0.97487310
a   6.5868219      Node    33.35281     +0.77949706     -0.22233387
e   0.3530970      Incl.   15.27442     +0.60310876     +0.01378747
P  16.90
From 78 observations 2014 Oct. 25-2017 Feb. 18, mean residual 0".3.

・ 光度変化

        m1 = 10.5 + 5 logΔ + 10.0 log r

---------------------------------------------------------------------

軌道要素はM.P.E.C. 2017-E59に掲載されたものです。
光度グラフはComet for Windowsで作成したものです。

---------------------------------------------------------------------

Copyright(C) Seiichi Yoshida (comet@aerith.net). All rights reserved.